Year,Month,Day,Hour,Minute,Value (Times are PST for insolation in W/m^2)
2012,05,27,00,00,0.00
2012,05,27,00,01,0.00
2012,05,27,00,02,0.00
2012,05,27,00,03,0.00
2012,05,27,00,04,0.00
2012,05,27,00,05,0.00
2012,05,27,00,06,0.00
2012,05,27,00,07,0.00
2012,05,27,00,08,0.00
2012,05,27,00,09,0.00
2012,05,27,00,10,0.00
2012,05,27,00,11,0.00
2012,05,27,00,12,0.00
2012,05,27,00,13,0.00
2012,05,27,00,14,0.00
2012,05,27,00,15,0.00
2012,05,27,00,16,0.00
2012,05,27,00,17,0.00
2012,05,27,00,18,0.00
2012,05,27,00,19,0.00
2012,05,27,00,20,0.00
2012,05,27,00,21,0.00
2012,05,27,00,22,0.00
2012,05,27,00,23,0.00
2012,05,27,00,24,0.00
2012,05,27,00,25,0.00
2012,05,27,00,26,0.00
2012,05,27,00,27,0.00
2012,05,27,00,28,0.00
2012,05,27,00,29,0.00
2012,05,27,00,30,0.00
2012,05,27,00,31,0.00
2012,05,27,00,32,0.00
2012,05,27,00,33,0.00
2012,05,27,00,34,0.00
2012,05,27,00,35,0.00
2012,05,27,00,36,0.00
2012,05,27,00,37,0.00
2012,05,27,00,38,0.00
2012,05,27,00,39,0.00
2012,05,27,00,40,0.00
2012,05,27,00,41,0.00
2012,05,27,00,42,0.00
2012,05,27,00,43,0.00
2012,05,27,00,44,0.00
2012,05,27,00,45,0.00
2012,05,27,00,46,0.00
2012,05,27,00,47,0.00
2012,05,27,00,48,0.00
2012,05,27,00,49,0.00
2012,05,27,00,50,0.00
2012,05,27,00,51,0.00
2012,05,27,00,52,0.00
2012,05,27,00,53,0.00
2012,05,27,00,54,0.00
2012,05,27,00,55,0.00
2012,05,27,00,56,0.00
2012,05,27,00,57,0.00
2012,05,27,00,58,0.00
2012,05,27,00,59,0.00
2012,05,27,01,00,0.00
2012,05,27,01,01,0.00
2012,05,27,01,02,0.00
2012,05,27,01,03,0.00
2012,05,27,01,04,0.00
2012,05,27,01,05,0.00
2012,05,27,01,06,0.00
2012,05,27,01,07,0.00
2012,05,27,01,08,0.00
2012,05,27,01,09,0.00
2012,05,27,01,10,0.00
2012,05,27,01,11,0.00
2012,05,27,01,12,0.00
2012,05,27,01,13,0.00
2012,05,27,01,14,0.00
2012,05,27,01,15,0.00
2012,05,27,01,16,0.00
2012,05,27,01,17,0.00
2012,05,27,01,18,0.00
2012,05,27,01,19,0.00
2012,05,27,01,20,0.00
2012,05,27,01,21,0.00
2012,05,27,01,22,0.00
2012,05,27,01,23,0.00
2012,05,27,01,24,0.00
2012,05,27,01,25,0.00
2012,05,27,01,26,0.00
2012,05,27,01,27,0.00
2012,05,27,01,28,0.00
2012,05,27,01,29,0.00
2012,05,27,01,30,0.00
2012,05,27,01,31,0.00
2012,05,27,01,32,0.00
2012,05,27,01,33,0.00
2012,05,27,01,34,0.00
2012,05,27,01,35,0.00
2012,05,27,01,36,0.00
2012,05,27,01,37,0.00
2012,05,27,01,38,0.00
2012,05,27,01,39,0.00
2012,05,27,01,40,0.00
2012,05,27,01,41,0.00
2012,05,27,01,42,0.00
2012,05,27,01,43,0.00
2012,05,27,01,44,0.00
2012,05,27,01,45,0.00
2012,05,27,01,46,0.00
2012,05,27,01,47,0.00
2012,05,27,01,48,0.00
2012,05,27,01,49,0.00
2012,05,27,01,50,0.00
2012,05,27,01,51,0.00
2012,05,27,01,52,0.00
2012,05,27,01,53,0.00
2012,05,27,01,54,0.00
2012,05,27,01,55,0.00
2012,05,27,01,56,0.00
2012,05,27,01,57,0.00
2012,05,27,01,58,0.00
2012,05,27,01,59,0.00
2012,05,27,02,00,0.00
2012,05,27,02,01,0.00
2012,05,27,02,02,0.00
2012,05,27,02,03,0.00
2012,05,27,02,04,0.00
2012,05,27,02,05,0.00
2012,05,27,02,06,0.00
2012,05,27,02,07,0.00
2012,05,27,02,08,0.00
2012,05,27,02,09,0.00
2012,05,27,02,10,0.00
2012,05,27,02,11,0.00
2012,05,27,02,12,0.00
2012,05,27,02,13,0.00
2012,05,27,02,14,0.00
2012,05,27,02,15,0.00
2012,05,27,02,16,0.00
2012,05,27,02,17,0.00
2012,05,27,02,18,0.00
2012,05,27,02,19,0.00
2012,05,27,02,20,0.00
2012,05,27,02,21,0.00
2012,05,27,02,22,0.00
2012,05,27,02,23,0.00
2012,05,27,02,24,0.00
2012,05,27,02,25,0.00
2012,05,27,02,26,0.00
2012,05,27,02,27,0.00
2012,05,27,02,28,0.00
2012,05,27,02,29,0.00
2012,05,27,02,30,0.00
2012,05,27,02,31,0.00
2012,05,27,02,32,0.00
2012,05,27,02,33,0.00
2012,05,27,02,34,0.00
2012,05,27,02,35,0.00
2012,05,27,02,36,0.00
2012,05,27,02,37,0.00
2012,05,27,02,38,0.00
2012,05,27,02,39,0.00
2012,05,27,02,40,0.00
2012,05,27,02,41,0.00
2012,05,27,02,42,0.00
2012,05,27,02,43,0.00
2012,05,27,02,44,0.00
2012,05,27,02,45,0.00
2012,05,27,02,46,0.00
2012,05,27,02,47,0.00
2012,05,27,02,48,0.00
2012,05,27,02,49,0.00
2012,05,27,02,50,0.00
2012,05,27,02,51,0.00
2012,05,27,02,52,0.00
2012,05,27,02,53,0.00
2012,05,27,02,54,0.00
2012,05,27,02,55,0.00
2012,05,27,02,56,0.00
2012,05,27,02,57,0.00
2012,05,27,02,58,0.00
2012,05,27,02,59,0.00
2012,05,27,03,00,0.00
2012,05,27,03,01,0.00
2012,05,27,03,02,0.00
2012,05,27,03,03,0.00
2012,05,27,03,04,0.00
2012,05,27,03,05,0.00
2012,05,27,03,06,0.00
2012,05,27,03,07,0.00
2012,05,27,03,08,0.00
2012,05,27,03,09,0.00
2012,05,27,03,10,0.00
2012,05,27,03,11,0.00
2012,05,27,03,12,0.00
2012,05,27,03,13,0.00
2012,05,27,03,14,0.00
2012,05,27,03,15,0.00
2012,05,27,03,16,0.00
2012,05,27,03,17,0.00
2012,05,27,03,18,0.00
2012,05,27,03,19,0.00
2012,05,27,03,20,0.00
2012,05,27,03,21,0.00
2012,05,27,03,22,0.00
2012,05,27,03,23,0.00
2012,05,27,03,24,0.00
2012,05,27,03,25,0.00
2012,05,27,03,26,0.00
2012,05,27,03,27,0.00
2012,05,27,03,28,0.00
2012,05,27,03,29,0.00
2012,05,27,03,30,0.00
2012,05,27,03,31,0.00
2012,05,27,03,32,0.00
2012,05,27,03,33,0.00
2012,05,27,03,34,0.00
2012,05,27,03,35,0.00
2012,05,27,03,36,0.00
2012,05,27,03,37,0.00
2012,05,27,03,38,0.00
2012,05,27,03,39,0.00
2012,05,27,03,40,0.00
2012,05,27,03,41,0.00
2012,05,27,03,42,0.00
2012,05,27,03,43,0.00
2012,05,27,03,44,0.00
2012,05,27,03,45,0.00
2012,05,27,03,46,0.00
2012,05,27,03,47,0.00
2012,05,27,03,48,0.00
2012,05,27,03,49,0.00
2012,05,27,03,50,0.00
2012,05,27,03,51,0.00
2012,05,27,03,52,0.00
2012,05,27,03,53,0.00
2012,05,27,03,54,0.00
2012,05,27,03,55,0.00
2012,05,27,03,56,0.00
2012,05,27,03,57,0.00
2012,05,27,03,58,0.00
2012,05,27,03,59,0.00
2012,05,27,04,00,0.00
2012,05,27,04,01,0.00
2012,05,27,04,02,0.00
2012,05,27,04,03,0.00
2012,05,27,04,04,0.00
2012,05,27,04,05,0.00
2012,05,27,04,06,0.00
2012,05,27,04,07,0.00
2012,05,27,04,08,0.00
2012,05,27,04,09,0.00
2012,05,27,04,10,0.00
2012,05,27,04,11,0.00
2012,05,27,04,12,0.00
2012,05,27,04,13,0.00
2012,05,27,04,14,0.00
2012,05,27,04,15,0.00
2012,05,27,04,16,0.00
2012,05,27,04,17,0.00
2012,05,27,04,18,0.00
2012,05,27,04,19,0.00
2012,05,27,04,20,0.00
2012,05,27,04,21,0.00
2012,05,27,04,22,0.00
2012,05,27,04,23,0.00
2012,05,27,04,24,0.00
2012,05,27,04,25,0.00
2012,05,27,04,26,0.00
2012,05,27,04,27,0.00
2012,05,27,04,28,0.00
2012,05,27,04,29,0.00
2012,05,27,04,30,0.00
2012,05,27,04,31,0.00
2012,05,27,04,32,0.00
2012,05,27,04,33,0.00
2012,05,27,04,34,0.00
2012,05,27,04,35,0.00
2012,05,27,04,36,0.00
2012,05,27,04,37,0.00
2012,05,27,04,38,0.00
2012,05,27,04,39,0.00
2012,05,27,04,40,0.00
2012,05,27,04,41,0.00
2012,05,27,04,42,0.00
2012,05,27,04,43,0.00
2012,05,27,04,44,0.00
2012,05,27,04,45,0.00
2012,05,27,04,46,0.00
2012,05,27,04,47,0.00
2012,05,27,04,48,0.00
2012,05,27,04,49,0.00
2012,05,27,04,50,0.00
2012,05,27,04,51,0.00
2012,05,27,04,52,0.00
2012,05,27,04,53,0.00
2012,05,27,04,54,0.00
2012,05,27,04,55,0.00
2012,05,27,04,56,0.00
2012,05,27,04,57,0.00
2012,05,27,04,58,0.00
2012,05,27,04,59,0.00
2012,05,27,05,00,0.00
2012,05,27,05,01,0.00
2012,05,27,05,02,0.00
2012,05,27,05,03,0.00
2012,05,27,05,04,0.00
2012,05,27,05,05,0.00
2012,05,27,05,06,0.00
2012,05,27,05,07,0.00
2012,05,27,05,08,0.00
2012,05,27,05,09,0.00
2012,05,27,05,10,0.00
2012,05,27,05,11,0.00
2012,05,27,05,12,0.00
2012,05,27,05,13,0.00
2012,05,27,05,14,0.00
2012,05,27,05,15,0.00
2012,05,27,05,16,0.00
2012,05,27,05,17,0.00
2012,05,27,05,18,0.00
2012,05,27,05,19,0.00
2012,05,27,05,20,0.00
2012,05,27,05,21,0.00
2012,05,27,05,22,0.00
2012,05,27,05,23,0.00
2012,05,27,05,24,0.00
2012,05,27,05,25,0.00
2012,05,27,05,26,0.00
2012,05,27,05,27,0.00
2012,05,27,05,28,0.00
2012,05,27,05,29,0.00
2012,05,27,05,30,4.50
2012,05,27,05,31,5.00
2012,05,27,05,32,5.00
2012,05,27,05,33,5.00
2012,05,27,05,34,5.00
2012,05,27,05,35,6.10
2012,05,27,05,36,7.00
2012,05,27,05,37,7.00
2012,05,27,05,38,7.00
2012,05,27,05,39,8.90
2012,05,27,05,40,9.00
2012,05,27,05,41,9.50
2012,05,27,05,42,11.00
2012,05,27,05,43,11.50
2012,05,27,05,44,12.00
2012,05,27,05,45,13.40
2012,05,27,05,46,15.50
2012,05,27,05,47,16.00
2012,05,27,05,48,17.90
2012,05,27,05,49,18.00
2012,05,27,05,50,18.00
2012,05,27,05,51,18.00
2012,05,27,05,52,18.00
2012,05,27,05,53,16.80
2012,05,27,05,54,16.00
2012,05,27,05,55,16.00
2012,05,27,05,56,16.00
2012,05,27,05,57,16.00
2012,05,27,05,58,16.00
2012,05,27,05,59,15.40
2012,05,27,06,00,14.00
2012,05,27,06,01,14.00
2012,05,27,06,02,14.00
2012,05,27,06,03,15.50
2012,05,27,06,04,16.00
2012,05,27,06,05,16.00
2012,05,27,06,06,16.00
2012,05,27,06,07,16.00
2012,05,27,06,08,16.00
2012,05,27,06,09,16.00
2012,05,27,06,10,17.20
2012,05,27,06,11,18.00
2012,05,27,06,12,18.00
2012,05,27,06,13,18.90
2012,05,27,06,14,19.20
2012,05,27,06,15,21.00
2012,05,27,06,16,21.60
2012,05,27,06,17,23.00
2012,05,27,06,18,24.00
2012,05,27,06,19,25.00
2012,05,27,06,20,25.00
2012,05,27,06,21,25.00
2012,05,27,06,22,25.00
2012,05,27,06,23,24.70
2012,05,27,06,24,22.50
2012,05,27,06,25,21.00
2012,05,27,06,26,20.00
2012,05,27,06,27,19.00
2012,05,27,06,28,19.00
2012,05,27,06,29,18.20
2012,05,27,06,30,18.00
2012,05,27,06,31,18.00
2012,05,27,06,32,18.00
2012,05,27,06,33,18.30
2012,05,27,06,34,19.00
2012,05,27,06,35,19.00
2012,05,27,06,36,20.20
2012,05,27,06,37,21.00
2012,05,27,06,38,21.00
2012,05,27,06,39,21.10
2012,05,27,06,40,23.00
2012,05,27,06,41,23.00
2012,05,27,06,42,23.00
2012,05,27,06,43,23.90
2012,05,27,06,44,25.00
2012,05,27,06,45,25.00
2012,05,27,06,46,25.00
2012,05,27,06,47,25.00
2012,05,27,06,48,26.00
2012,05,27,06,49,28.40
2012,05,27,06,50,30.00
2012,05,27,06,51,30.70
2012,05,27,06,52,32.00
2012,05,27,06,53,32.00
2012,05,27,06,54,32.00
2012,05,27,06,55,30.40
2012,05,27,06,56,28.20
2012,05,27,06,57,25.90
2012,05,27,06,58,25.00
2012,05,27,06,59,24.40
2012,05,27,07,00,23.00
2012,05,27,07,01,22.00
2012,05,27,07,02,21.00
2012,05,27,07,03,21.00
2012,05,27,07,04,21.00
2012,05,27,07,05,22.80
2012,05,27,07,06,23.00
2012,05,27,07,07,23.50
2012,05,27,07,08,25.00
2012,05,27,07,09,25.50
2012,05,27,07,10,26.00
2012,05,27,07,11,27.30
2012,05,27,07,12,29.50
2012,05,27,07,13,30.00
2012,05,27,07,14,32.10
2012,05,27,07,15,33.40
2012,05,27,07,16,35.60
2012,05,27,07,17,37.80
2012,05,27,07,18,39.50
2012,05,27,07,19,41.10
2012,05,27,07,20,42.00
2012,05,27,07,21,43.60
2012,05,27,07,22,44.00
2012,05,27,07,23,44.30
2012,05,27,07,24,46.00
2012,05,27,07,25,46.30
2012,05,27,07,26,48.80
2012,05,27,07,27,52.00
2012,05,27,07,28,53.60
2012,05,27,07,29,55.50
2012,05,27,07,30,59.40
2012,05,27,07,31,62.00
2012,05,27,07,32,65.70
2012,05,27,07,33,69.70
2012,05,27,07,34,73.60
2012,05,27,07,35,77.50
2012,05,27,07,36,81.40
2012,05,27,07,37,83.70
2012,05,27,07,38,84.00
2012,05,27,07,39,85.80
2012,05,27,07,40,88.20
2012,05,27,07,41,90.00
2012,05,27,07,42,90.30
2012,05,27,07,43,90.60
2012,05,27,07,44,89.00
2012,05,27,07,45,85.40
2012,05,27,07,46,83.30
2012,05,27,07,47,78.10
2012,05,27,07,48,74.20
2012,05,27,07,49,74.00
2012,05,27,07,50,74.50
2012,05,27,07,51,77.10
2012,05,27,07,52,79.90
2012,05,27,07,53,82.10
2012,05,27,07,54,83.60
2012,05,27,07,55,83.20
2012,05,27,07,56,81.30
2012,05,27,07,57,79.00
2012,05,27,07,58,79.40
2012,05,27,07,59,81.60
2012,05,27,08,00,84.20
2012,05,27,08,01,87.80
2012,05,27,08,02,91.70
2012,05,27,08,03,94.40
2012,05,27,08,04,96.70
2012,05,27,08,05,97.00
2012,05,27,08,06,96.80
2012,05,27,08,07,94.50
2012,05,27,08,08,92.30
2012,05,27,08,09,90.60
2012,05,27,08,10,87.70
2012,05,27,08,11,84.70
2012,05,27,08,12,83.30
2012,05,27,08,13,83.00
2012,05,27,08,14,83.00
2012,05,27,08,15,83.00
2012,05,27,08,16,82.50
2012,05,27,08,17,80.20
2012,05,27,08,18,78.00
2012,05,27,08,19,78.10
2012,05,27,08,20,80.40
2012,05,27,08,21,83.30
2012,05,27,08,22,85.80
2012,05,27,08,23,88.20
2012,05,27,08,24,90.00
2012,05,27,08,25,90.30
2012,05,27,08,26,90.60
2012,05,27,08,27,90.00
2012,05,27,08,28,90.00
2012,05,27,08,29,90.00
2012,05,27,08,30,90.80
2012,05,27,08,31,92.90
2012,05,27,08,32,93.30
2012,05,27,08,33,95.00
2012,05,27,08,34,94.30
2012,05,27,08,35,91.60
2012,05,27,08,36,87.60
2012,05,27,08,37,84.70
2012,05,27,08,38,84.00
2012,05,27,08,39,84.00
2012,05,27,08,40,86.40
2012,05,27,08,41,90.20
2012,05,27,08,42,91.60
2012,05,27,08,43,94.60
2012,05,27,08,44,97.50
2012,05,27,08,45,98.00
2012,05,27,08,46,99.40
2012,05,27,08,47,100.00
2012,05,27,08,48,100.00
2012,05,27,08,49,100.00
2012,05,27,08,50,100.50
2012,05,27,08,51,102.00
2012,05,27,08,52,103.20
2012,05,27,08,53,106.10
2012,05,27,08,54,108.40
2012,05,27,08,55,109.00
2012,05,27,08,56,109.00
2012,05,27,08,57,107.10
2012,05,27,08,58,107.00
2012,05,27,08,59,107.50
2012,05,27,09,00,109.00
2012,05,27,09,01,110.00
2012,05,27,09,02,111.00
2012,05,27,09,03,109.60
2012,05,27,09,04,107.40
2012,05,27,09,05,105.20
2012,05,27,09,06,101.50
2012,05,27,09,07,96.90
2012,05,27,09,08,92.00
2012,05,27,09,09,87.40
2012,05,27,09,10,83.50
2012,05,27,09,11,80.50
2012,05,27,09,12,77.60
2012,05,27,09,13,76.10
2012,05,27,09,14,74.00
2012,05,27,09,15,72.00
2012,05,27,09,16,72.00
2012,05,27,09,17,72.70
2012,05,27,09,18,74.90
2012,05,27,09,19,77.80
2012,05,27,09,20,81.80
2012,05,27,09,21,86.90
2012,05,27,09,22,89.80
2012,05,27,09,23,91.00
2012,05,27,09,24,91.00
2012,05,27,09,25,90.70
2012,05,27,09,26,89.10
2012,05,27,09,27,88.00
2012,05,27,09,28,88.00
2012,05,27,09,29,89.40
2012,05,27,09,30,90.80
2012,05,27,09,31,93.00
2012,05,27,09,32,97.20
2012,05,27,09,33,98.50
2012,05,27,09,34,100.60
2012,05,27,09,35,102.90
2012,05,27,09,36,104.00
2012,05,27,09,37,104.00
2012,05,27,09,38,104.00
2012,05,27,09,39,104.00
2012,05,27,09,40,104.10
2012,05,27,09,41,105.30
2012,05,27,09,42,108.10
2012,05,27,09,43,111.80
2012,05,27,09,44,114.50
2012,05,27,09,45,117.10
2012,05,27,09,46,121.40
2012,05,27,09,47,126.30
2012,05,27,09,48,129.70
2012,05,27,09,49,134.30
2012,05,27,09,50,137.90
2012,05,27,09,51,142.70
2012,05,27,09,52,148.00
2012,05,27,09,53,155.70
2012,05,27,09,54,165.90
2012,05,27,09,55,169.00
2012,05,27,09,56,182.90
2012,05,27,09,57,193.00
2012,05,27,09,58,200.90
2012,05,27,09,59,206.80
2012,05,27,10,00,210.50
2012,05,27,10,01,213.40
2012,05,27,10,02,213.40
2012,05,27,10,03,211.60
2012,05,27,10,04,207.90
2012,05,27,10,05,204.30
2012,05,27,10,06,201.80
2012,05,27,10,07,199.80
2012,05,27,10,08,199.00
2012,05,27,10,09,199.00
2012,05,27,10,10,199.00
2012,05,27,10,11,199.00
2012,05,27,10,12,197.50
2012,05,27,10,13,195.40
2012,05,27,10,14,190.30
2012,05,27,10,15,185.90
2012,05,27,10,16,184.50
2012,05,27,10,17,183.00
2012,05,27,10,18,184.40
2012,05,27,10,19,188.10
2012,05,27,10,20,191.30
2012,05,27,10,21,194.20
2012,05,27,10,22,195.00
2012,05,27,10,23,193.00
2012,05,27,10,24,191.70
2012,05,27,10,25,189.40
2012,05,27,10,26,188.00
2012,05,27,10,27,186.50
2012,05,27,10,28,183.80
2012,05,27,10,29,181.60
2012,05,27,10,30,177.00
2012,05,27,10,31,174.00
2012,05,27,10,32,171.00
2012,05,27,10,33,170.50
2012,05,27,10,34,169.00
2012,05,27,10,35,169.80
2012,05,27,10,36,171.50
2012,05,27,10,37,174.50
2012,05,27,10,38,177.50
2012,05,27,10,39,180.60
2012,05,27,10,40,185.00
2012,05,27,10,41,190.60
2012,05,27,10,42,194.00
2012,05,27,10,43,197.70
2012,05,27,10,44,199.00
2012,05,27,10,45,199.00
2012,05,27,10,46,196.20
2012,05,27,10,47,192.60
2012,05,27,10,48,190.30
2012,05,27,10,49,187.80
2012,05,27,10,50,185.80
2012,05,27,10,51,185.00
2012,05,27,10,52,184.10
2012,05,27,10,53,183.00
2012,05,27,10,54,183.00
2012,05,27,10,55,184.40
2012,05,27,10,56,185.80
2012,05,27,10,57,189.90
2012,05,27,10,58,192.10
2012,05,27,10,59,193.50
2012,05,27,11,00,196.30
2012,05,27,11,01,199.40
2012,05,27,11,02,202.30
2012,05,27,11,03,205.90
2012,05,27,11,04,210.00
2012,05,27,11,05,213.60
2012,05,27,11,06,216.00
2012,05,27,11,07,216.00
2012,05,27,11,08,216.00
2012,05,27,11,09,215.30
2012,05,27,11,10,214.00
2012,05,27,11,11,214.00
2012,05,27,11,12,213.30
2012,05,27,11,13,211.40
2012,05,27,11,14,211.00
2012,05,27,11,15,208.80
2012,05,27,11,16,207.00
2012,05,27,11,17,206.70
2012,05,27,11,18,206.00
2012,05,27,11,19,206.60
2012,05,27,11,20,207.00
2012,05,27,11,21,208.50
2012,05,27,11,22,210.60
2012,05,27,11,23,214.10
2012,05,27,11,24,221.00
2012,05,27,11,25,229.20
2012,05,27,11,26,239.60
2012,05,27,11,27,251.00
2012,05,27,11,28,263.90
2012,05,27,11,29,277.00
2012,05,27,11,30,287.90
2012,05,27,11,31,296.00
2012,05,27,11,32,303.70
2012,05,27,11,33,304.40
2012,05,27,11,34,304.70
2012,05,27,11,35,300.80
2012,05,27,11,36,296.90
2012,05,27,11,37,290.50
2012,05,27,11,38,285.80
2012,05,27,11,39,283.30
2012,05,27,11,40,283.20
2012,05,27,11,41,288.00
2012,05,27,11,42,295.70
2012,05,27,11,43,303.80
2012,05,27,11,44,312.10
2012,05,27,11,45,319.80
2012,05,27,11,46,327.10
2012,05,27,11,47,329.80
2012,05,27,11,48,331.70
2012,05,27,11,49,334.10
2012,05,27,11,50,336.30
2012,05,27,11,51,338.90
2012,05,27,11,52,341.70
2012,05,27,11,53,343.00
2012,05,27,11,54,343.00
2012,05,27,11,55,341.70
2012,05,27,11,56,341.00
2012,05,27,11,57,341.00
2012,05,27,11,58,341.00
2012,05,27,11,59,341.00
2012,05,27,12,00,339.30
2012,05,27,12,01,336.00
2012,05,27,12,02,333.90
2012,05,27,12,03,330.00
2012,05,27,12,04,327.50
2012,05,27,12,05,325.30
2012,05,27,12,06,322.10
2012,05,27,12,07,322.20
2012,05,27,12,08,324.00
2012,05,27,12,09,328.10
2012,05,27,12,10,331.80
2012,05,27,12,11,336.40
2012,05,27,12,12,338.70
2012,05,27,12,13,340.60
2012,05,27,12,14,345.30
2012,05,27,12,15,352.70
2012,05,27,12,16,360.20
2012,05,27,12,17,367.00
2012,05,27,12,18,375.10
2012,05,27,12,19,379.60
2012,05,27,12,20,382.20
2012,05,27,12,21,383.00
2012,05,27,12,22,388.60
2012,05,27,12,23,391.80
2012,05,27,12,24,391.70
2012,05,27,12,25,389.50
2012,05,27,12,26,388.00
2012,05,27,12,27,388.00
2012,05,27,12,28,389.10
2012,05,27,12,29,393.90
2012,05,27,12,30,399.80
2012,05,27,12,31,403.50
2012,05,27,12,32,405.90
2012,05,27,12,33,406.40
2012,05,27,12,34,408.60
2012,05,27,12,35,411.20
2012,05,27,12,36,415.40
2012,05,27,12,37,421.60
2012,05,27,12,38,427.60
2012,05,27,12,39,434.70
2012,05,27,12,40,437.90
2012,05,27,12,41,439.30
2012,05,27,12,42,441.40
2012,05,27,12,43,443.00
2012,05,27,12,44,442.10
2012,05,27,12,45,439.90
2012,05,27,12,46,438.30
2012,05,27,12,47,436.50
2012,05,27,12,48,434.30
2012,05,27,12,49,434.10
2012,05,27,12,50,436.30
2012,05,27,12,51,438.30
2012,05,27,12,52,439.00
2012,05,27,12,53,437.60
2012,05,27,12,54,434.90
2012,05,27,12,55,432.70
2012,05,27,12,56,432.00
2012,05,27,12,57,432.00
2012,05,27,12,58,434.00
2012,05,27,12,59,434.00
2012,05,27,13,00,433.40
2012,05,27,13,01,431.60
2012,05,27,13,02,431.00
2012,05,27,13,03,429.80
2012,05,27,13,04,427.50
2012,05,27,13,05,421.30
2012,05,27,13,06,411.40
2012,05,27,13,07,399.40
2012,05,27,13,08,387.30
2012,05,27,13,09,376.90
2012,05,27,13,10,366.70
2012,05,27,13,11,358.20
2012,05,27,13,12,351.40
2012,05,27,13,13,347.00
2012,05,27,13,14,346.00
2012,05,27,13,15,348.30
2012,05,27,13,16,354.10
2012,05,27,13,17,361.40
2012,05,27,13,18,372.60
2012,05,27,13,19,387.00
2012,05,27,13,20,399.90
2012,05,27,13,21,410.10
2012,05,27,13,22,420.20
2012,05,27,13,23,423.80
2012,05,27,13,24,425.30
2012,05,27,13,25,429.10
2012,05,27,13,26,439.60
2012,05,27,13,27,451.00
2012,05,27,13,28,459.20
2012,05,27,13,29,458.50
2012,05,27,13,30,448.90
2012,05,27,13,31,437.40
2012,05,27,13,32,428.80
2012,05,27,13,33,425.80
2012,05,27,13,34,433.20
2012,05,27,13,35,444.70
2012,05,27,13,36,457.30
2012,05,27,13,37,459.90
2012,05,27,13,38,455.60
2012,05,27,13,39,450.90
2012,05,27,13,40,450.00
2012,05,27,13,41,457.80
2012,05,27,13,42,467.10
2012,05,27,13,43,471.00
2012,05,27,13,44,470.10
2012,05,27,13,45,468.50
2012,05,27,13,46,468.00
2012,05,27,13,47,468.70
2012,05,27,13,48,470.70
2012,05,27,13,49,472.90
2012,05,27,13,50,473.30
2012,05,27,13,51,475.30
2012,05,27,13,52,478.20
2012,05,27,13,53,481.00
2012,05,27,13,54,477.30
2012,05,27,13,55,469.10
2012,05,27,13,56,466.00
2012,05,27,13,57,455.10
2012,05,27,13,58,450.10
2012,05,27,13,59,448.40
2012,05,27,14,00,451.40
2012,05,27,14,01,457.70
2012,05,27,14,02,464.90
2012,05,27,14,03,469.80
2012,05,27,14,04,472.40
2012,05,27,14,05,474.60
2012,05,27,14,06,476.00
2012,05,27,14,07,477.70
2012,05,27,14,08,475.80
2012,05,27,14,09,473.00
2012,05,27,14,10,465.80
2012,05,27,14,11,458.00
2012,05,27,14,12,450.80
2012,05,27,14,13,442.80
2012,05,27,14,14,435.00
2012,05,27,14,15,424.00
2012,05,27,14,16,411.60
2012,05,27,14,17,400.70
2012,05,27,14,18,391.80
2012,05,27,14,19,387.60
2012,05,27,14,20,387.00
2012,05,27,14,21,387.70
2012,05,27,14,22,392.70
2012,05,27,14,23,398.50
2012,05,27,14,24,403.00
2012,05,27,14,25,405.60
2012,05,27,14,26,416.60
2012,05,27,14,27,420.80
2012,05,27,14,28,422.00
2012,05,27,14,29,419.50
2012,05,27,14,30,415.90
2012,05,27,14,31,411.70
2012,05,27,14,32,410.00
2012,05,27,14,33,409.70
2012,05,27,14,34,406.90
2012,05,27,14,35,402.20
2012,05,27,14,36,395.80
2012,05,27,14,37,388.00
2012,05,27,14,38,380.30
2012,05,27,14,39,371.00
2012,05,27,14,40,360.90
2012,05,27,14,41,347.50
2012,05,27,14,42,333.60
2012,05,27,14,43,320.70
2012,05,27,14,44,312.00
2012,05,27,14,45,304.90
2012,05,27,14,46,299.20
2012,05,27,14,47,293.60
2012,05,27,14,48,288.80
2012,05,27,14,49,287.00
2012,05,27,14,50,287.10
2012,05,27,14,51,287.80
2012,05,27,14,52,286.30
2012,05,27,14,53,281.80
2012,05,27,14,54,273.10
2012,05,27,14,55,264.50
2012,05,27,14,56,256.80
2012,05,27,14,57,251.50
2012,05,27,14,58,251.00
2012,05,27,14,59,250.80
2012,05,27,15,00,250.00
2012,05,27,15,01,250.00
2012,05,27,15,02,250.00
2012,05,27,15,03,250.60
2012,05,27,15,04,253.70
2012,05,27,15,05,256.60
2012,05,27,15,06,257.90
2012,05,27,15,07,254.50
2012,05,27,15,08,247.90
2012,05,27,15,09,238.70
2012,05,27,15,10,231.00
2012,05,27,15,11,224.90
2012,05,27,15,12,219.80
2012,05,27,15,13,215.10
2012,05,27,15,14,209.70
2012,05,27,15,15,204.10
2012,05,27,15,16,201.60
2012,05,27,15,17,198.50
2012,05,27,15,18,197.00
2012,05,27,15,19,197.00
2012,05,27,15,20,198.10
2012,05,27,15,21,199.70
2012,05,27,15,22,200.00
2012,05,27,15,23,200.00
2012,05,27,15,24,199.00
2012,05,27,15,25,198.30
2012,05,27,15,26,194.40
2012,05,27,15,27,193.00
2012,05,27,15,28,194.00
2012,05,27,15,29,196.20
2012,05,27,15,30,200.80
2012,05,27,15,31,206.00
2012,05,27,15,32,213.60
2012,05,27,15,33,220.40
2012,05,27,15,34,223.50
2012,05,27,15,35,225.00
2012,05,27,15,36,224.10
2012,05,27,15,37,221.40
2012,05,27,15,38,217.30
2012,05,27,15,39,214.50
2012,05,27,15,40,211.40
2012,05,27,15,41,207.00
2012,05,27,15,42,204.00
2012,05,27,15,43,203.50
2012,05,27,15,44,201.20
2012,05,27,15,45,198.60
2012,05,27,15,46,194.00
2012,05,27,15,47,187.60
2012,05,27,15,48,180.40
2012,05,27,15,49,172.70
2012,05,27,15,50,168.60
2012,05,27,15,51,164.60
2012,05,27,15,52,163.00
2012,05,27,15,53,163.00
2012,05,27,15,54,163.00
2012,05,27,15,55,163.00
2012,05,27,15,56,163.00
2012,05,27,15,57,163.00
2012,05,27,15,58,162.10
2012,05,27,15,59,163.40
2012,05,27,16,00,165.50
2012,05,27,16,01,167.80
2012,05,27,16,02,169.90
2012,05,27,16,03,171.60
2012,05,27,16,04,171.30
2012,05,27,16,05,169.50
2012,05,27,16,06,165.50
2012,05,27,16,07,161.60
2012,05,27,16,08,157.00
2012,05,27,16,09,151.70
2012,05,27,16,10,147.70
2012,05,27,16,11,143.90
2012,05,27,16,12,141.40
2012,05,27,16,13,139.50
2012,05,27,16,14,139.00
2012,05,27,16,15,137.10
2012,05,27,16,16,135.00
2012,05,27,16,17,135.50
2012,05,27,16,18,137.00
2012,05,27,16,19,138.80
2012,05,27,16,20,142.60
2012,05,27,16,21,146.70
2012,05,27,16,22,151.80
2012,05,27,16,23,159.00
2012,05,27,16,24,167.00
2012,05,27,16,25,175.20
2012,05,27,16,26,183.50
2012,05,27,16,27,192.00
2012,05,27,16,28,197.00
2012,05,27,16,29,197.80
2012,05,27,16,30,194.10
2012,05,27,16,31,190.60
2012,05,27,16,32,186.40
2012,05,27,16,33,185.00
2012,05,27,16,34,185.00
2012,05,27,16,35,184.40
2012,05,27,16,36,183.00
2012,05,27,16,37,181.90
2012,05,27,16,38,179.10
2012,05,27,16,39,173.60
2012,05,27,16,40,167.70
2012,05,27,16,41,162.20
2012,05,27,16,42,161.60
2012,05,27,16,43,160.50
2012,05,27,16,44,162.30
2012,05,27,16,45,164.00
2012,05,27,16,46,165.00
2012,05,27,16,47,163.60
2012,05,27,16,48,162.20
2012,05,27,16,49,162.00
2012,05,27,16,50,159.80
2012,05,27,16,51,157.60
2012,05,27,16,52,156.00
2012,05,27,16,53,156.00
2012,05,27,16,54,155.50
2012,05,27,16,55,155.00
2012,05,27,16,56,155.00
2012,05,27,16,57,153.40
2012,05,27,16,58,153.00
2012,05,27,16,59,153.00
2012,05,27,17,00,153.40
2012,05,27,17,01,155.00
2012,05,27,17,02,155.50
2012,05,27,17,03,156.00
2012,05,27,17,04,155.40
2012,05,27,17,05,155.00
2012,05,27,17,06,153.30
2012,05,27,17,07,150.80
2012,05,27,17,08,147.60
2012,05,27,17,09,145.50
2012,05,27,17,10,143.30
2012,05,27,17,11,141.50
2012,05,27,17,12,139.80
2012,05,27,17,13,137.60